Location: St. Louis
(38.6270°N, 90.1994°W)
Time: 19:46:40
(UTC-06:00)

Vanguard 3 - Pass Details

Date: 01 December 2021
Orbit: 508 x 3260 km, 33.3° (Epoch: 19 January)

Event Time Altitude Azimuth Distance (km) Brightness Sun altitude
Exits shadow 01:50:43 28° 151° (SSE) 4,823 10.9 -59.2°
Maximum altitude 01:53:09 29° 140° (SE) 4,775 10.9 -58.8°
Drops below altitude 10° 02:07:25 10° 90° (E) 5,744 11.8 -56.2°
Sets 02:12:16 0° 80° (E) 6,457 12.3 -55.3°
